Tracking 19644 objects as of 25-Apr-2019
HD Live streaming from Space Station
objects crossing your sky now

SL-3 DEB

Track SL-3 DEB now!
10-day predictions


NORAD ID: 25655
Int'l Code: 1988-032D
Perigee: 532.6 km
Apogee: 595.5 km
Inclination: 97.4 °
Period: 95.8 minutes
Semi major axis: 6935 km
RCS: 0.0386 m2 (small)
Launch date: April 20, 1988
Source: Commonwealth of Independent States (former USSR) (CIS)
Launch site: TYURATAM MISSILE AND SPACE COMPLEX (TTMTR)

Note: This is SATELLITE DEBRIS
aabbcc
Your satellite tracking list
Your tracking list is empty




NASA's NSSDC Master Catalog

Two Line Element Set (TLE):
1 25655U 88032D   19115.07703059 -.00000555  00000-0 -35651-4 0  9993
2 25655  97.4308 149.0316 0045356 195.4309 217.6248 15.03252639673163
Source of the keplerian elements: AFSPC